Location: Brachbach
(49.1847°N, 9.7240°E)
Time: 03:45:12
(UTC+00:00)

DELTA 2 R/B (1) - Pass Details

Date: 23 May 2024
Orbit: 788 x 801 km, 39.6° (Epoch: 19 June)

Event Time Altitude Azimuth Distance (km) Brightness Sun altitude
Exits shadow 00:26:21 30° 167° (SSE) 1,401 4.4 -18.5°
Drops below altitude 10° 00:30:44 10° 115° (ESE) 2,350 5.9 -18.3°
Sets 00:33:28 0° 105° (ESE) 3,278 6.8 -18.2°
